Showing default

GLOBALSTAR M023, 25621

Orbit data source: Space-Track

GLOBALSTAR M023, 25621 is a payload satellite owned by Globalstar (US) in LEO that was launched on Tue, 09 Feb 1999 UTC via a SOYUZ-U-PVB launch vehicle from the Tyuratam Missile And Space Complex (TTMTR). Payloads include a variety of satellites, spacecraft, and rockets equipped with specific instruments for various scientific and technological missions. These include communications satellites like Starlink; space stations such as the ISS; scientific satellites like the Hubble; Earth observation satellites from companies like Planet Labs, Umbra, and HawkEye 360; GPS; miniature CubeSats for education and research; and military/defense satellites.

Loading next visibility...
GLOBALSTAR M023 details
Identifier
25621, 1999-004A
Orbit
LEO
Last TLE update21 hours ago
Origin
Flag of USGlobalstar (US / GLOB)
ManufacturerSS/Loral
MissionNon-operational Commercial Communications
Bus & MotorLS-400, LS-400 AOCS
Mass450 kg wet, 380 kg dry
Launch date (UTC)
1999-02-09 (26 years ago)
Launch vehicle
SOYUZ-U-PVB
Launch site
Tyuratam Missile And Space Complex (TTMTR)
Object type
Payload
Rocket body
Debris
Shape & HBRBox + 2 Pan, 12 m
Radar Cross Section5.587 m², Large (>1 m²)

Expand to show TLE details & history

TLE from 21 hours ago
0 GLOBALSTAR M023
1 25621U 99004A   24360.57375590  .00000035  00000-0  77498-3 0  9990
2 25621  52.0087 222.0977 0010959 101.5968 293.0326 12.62492160193802
Epoch: 2024-12-25T13:46Z
Definitive object data (Epoch: 2024-12-25T13:46:12.509Z)
Latitude26.59238°
Longitude-56.12431°
Altitude1,410.392 km
Speed7.16 km/s
True Right ascension16h 19m 58s
True Declination26° 27' 59"
Sunlit
Object was in daylight at TLE epoch
Visualization TLE readout
Latitude48.12036°
Longitude38.1887°
Altitude1,409.57 km
Speed7.165 km/s
Apparent Right ascension22h 31m 25s
Apparent Declination9° 34' 38"
Sunlit
Object is in daylight
Visualization observer readout
Local Sidereal Time10:25:14
Azimuth357.999° N
Elevation-40.486°
Doppler factor1
Orbital elements
Apogee altitude1,421.604 km
Perigee altitude1,404.528 km
Semi-major axis7,791.203 km
Eccentricity0.0010959
Inclination52.0087°
RAAN222.0977°
Arg. of periapsis101.5968°
True anomaly292.91697°
Mean anomaly293.0326°
Eccentric anomaly292.97479°
Mean motion3.156 °/min
BSTAR0.00077498
Orbital period114.07 mins
Loading maneuver chart data...
Loading historical data...
Loading historical data...
Loading historical data...
Loading historical data...
Loading historical data...
Loading historical data...
Loading historical data...

GLOBALSTAR M023 Visibility forecast

Observer location: undefined°, undefined

Span
Click to sort rows by Start time (UTC) header in descending order
Start Az.
Max El. time (UTC)
Max El. Az.
Max El.
End time (UTC)
End Az.
14 mins2024-12-26 16:17:57.560Z187.483° SSW2024-12-26 16:24:57.560Z124.268° SE31.285°2024-12-26 16:31:57.560Z65.568° ENE
15 mins2024-12-26 18:16:57.560Z243.391° WSW2024-12-26 18:23:57.560Z321.555° NNW43.638°2024-12-26 18:31:57.560Z50.484° ENE
13 mins2024-12-26 20:18:57.560Z290.635° WNW2024-12-26 20:24:57.560Z349.518° N32.132°2024-12-26 20:31:57.560Z53.976° ENE
14 mins2024-12-26 22:19:57.560Z311.018° NW2024-12-26 22:26:57.560Z21.764° NNE34.305°2024-12-26 22:33:57.560Z84.147° E
15 mins2024-12-27 00:19:57.560Z307.271° NW2024-12-27 00:26:57.560Z286.316° WNW44.917°2024-12-27 00:34:57.560Z131.184° SE
11 mins2024-12-27 02:20:57.560Z280.272° WNW2024-12-27 02:25:57.560Z238.036° WSW23.206°2024-12-27 02:31:57.560Z189.583° SSW
|